Year,Month,Day,Hour,Minute,Value (Times are PST for temperature in C)
2013,07,15,00,00,14.70
2013,07,15,00,01,14.80
2013,07,15,00,02,14.80
2013,07,15,00,03,14.80
2013,07,15,00,04,14.90
2013,07,15,00,05,14.90
2013,07,15,00,06,15.00
2013,07,15,00,07,15.00
2013,07,15,00,08,15.00
2013,07,15,00,09,15.00
2013,07,15,00,10,15.00
2013,07,15,00,11,15.00
2013,07,15,00,12,15.00
2013,07,15,00,13,15.00
2013,07,15,00,14,15.00
2013,07,15,00,15,14.90
2013,07,15,00,16,14.90
2013,07,15,00,17,14.90
2013,07,15,00,18,14.90
2013,07,15,00,19,14.90
2013,07,15,00,20,14.80
2013,07,15,00,21,14.80
2013,07,15,00,22,14.80
2013,07,15,00,23,14.80
2013,07,15,00,24,14.80
2013,07,15,00,25,14.80
2013,07,15,00,26,14.70
2013,07,15,00,27,14.70
2013,07,15,00,28,14.70
2013,07,15,00,29,14.70
2013,07,15,00,30,14.70
2013,07,15,00,31,14.70
2013,07,15,00,32,14.60
2013,07,15,00,33,14.60
2013,07,15,00,34,14.60
2013,07,15,00,35,14.60
2013,07,15,00,36,14.60
2013,07,15,00,37,14.60
2013,07,15,00,38,14.60
2013,07,15,00,39,14.50
2013,07,15,00,40,14.50
2013,07,15,00,41,14.40
2013,07,15,00,42,14.40
2013,07,15,00,43,14.40
2013,07,15,00,44,14.40
2013,07,15,00,45,14.30
2013,07,15,00,46,14.30
2013,07,15,00,47,14.30
2013,07,15,00,48,14.20
2013,07,15,00,49,14.20
2013,07,15,00,50,14.20
2013,07,15,00,51,14.20
2013,07,15,00,52,14.20
2013,07,15,00,53,14.20
2013,07,15,00,54,14.20
2013,07,15,00,55,14.20
2013,07,15,00,56,14.20
2013,07,15,00,57,14.20
2013,07,15,00,58,14.20
2013,07,15,00,59,14.20
2013,07,15,01,00,14.20
2013,07,15,01,01,14.10
2013,07,15,01,02,14.10
2013,07,15,01,03,14.10
2013,07,15,01,04,14.10
2013,07,15,01,05,14.10
2013,07,15,01,06,14.10
2013,07,15,01,07,14.10
2013,07,15,01,08,14.20
2013,07,15,01,09,14.20
2013,07,15,01,10,14.20
2013,07,15,01,11,14.20
2013,07,15,01,12,14.20
2013,07,15,01,13,14.30
2013,07,15,01,14,14.30
2013,07,15,01,15,14.30
2013,07,15,01,16,14.30
2013,07,15,01,17,14.30
2013,07,15,01,18,14.30
2013,07,15,01,19,14.30
2013,07,15,01,20,14.30
2013,07,15,01,21,14.30
2013,07,15,01,22,14.30
2013,07,15,01,23,14.30
2013,07,15,01,24,14.30
2013,07,15,01,25,14.30
2013,07,15,01,26,14.30
2013,07,15,01,27,14.30
2013,07,15,01,28,14.30
2013,07,15,01,29,14.30
2013,07,15,01,30,14.20
2013,07,15,01,31,14.20
2013,07,15,01,32,14.20
2013,07,15,01,33,14.10
2013,07,15,01,34,14.10
2013,07,15,01,35,14.00
2013,07,15,01,36,14.00
2013,07,15,01,37,13.90
2013,07,15,01,38,13.90
2013,07,15,01,39,13.90
2013,07,15,01,40,13.90
2013,07,15,01,41,13.90
2013,07,15,01,42,13.90
2013,07,15,01,43,13.90
2013,07,15,01,44,13.90
2013,07,15,01,45,13.80
2013,07,15,01,46,13.80
2013,07,15,01,47,13.80
2013,07,15,01,48,13.70
2013,07,15,01,49,13.70
2013,07,15,01,50,13.70
2013,07,15,01,51,13.70
2013,07,15,01,52,13.60
2013,07,15,01,53,13.60
2013,07,15,01,54,13.60
2013,07,15,01,55,13.60
2013,07,15,01,56,13.60
2013,07,15,01,57,13.60
2013,07,15,01,58,13.60
2013,07,15,01,59,13.70
2013,07,15,02,00,13.70
2013,07,15,02,01,13.70
2013,07,15,02,02,13.70
2013,07,15,02,03,13.70
2013,07,15,02,04,13.80
2013,07,15,02,05,13.90
2013,07,15,02,06,13.90
2013,07,15,02,07,14.00
2013,07,15,02,08,14.00
2013,07,15,02,09,14.10
2013,07,15,02,10,14.20
2013,07,15,02,11,14.20
2013,07,15,02,12,14.20
2013,07,15,02,13,14.20
2013,07,15,02,14,14.20
2013,07,15,02,15,14.30
2013,07,15,02,16,14.30
2013,07,15,02,17,14.30
2013,07,15,02,18,14.30
2013,07,15,02,19,14.30
2013,07,15,02,20,14.30
2013,07,15,02,21,14.30
2013,07,15,02,22,14.30
2013,07,15,02,23,14.30
2013,07,15,02,24,14.30
2013,07,15,02,25,14.30
2013,07,15,02,26,14.30
2013,07,15,02,27,14.20
2013,07,15,02,28,14.20
2013,07,15,02,29,14.20
2013,07,15,02,30,14.20
2013,07,15,02,31,14.20
2013,07,15,02,32,14.20
2013,07,15,02,33,14.20
2013,07,15,02,34,14.20
2013,07,15,02,35,14.20
2013,07,15,02,36,14.10
2013,07,15,02,37,14.10
2013,07,15,02,38,14.10
2013,07,15,02,39,14.10
2013,07,15,02,40,14.10
2013,07,15,02,41,14.10
2013,07,15,02,42,14.00
2013,07,15,02,43,14.00
2013,07,15,02,44,14.00
2013,07,15,02,45,13.90
2013,07,15,02,46,13.90
2013,07,15,02,47,13.90
2013,07,15,02,48,13.80
2013,07,15,02,49,13.80
2013,07,15,02,50,13.80
2013,07,15,02,51,13.70
2013,07,15,02,52,13.70
2013,07,15,02,53,13.70
2013,07,15,02,54,13.70
2013,07,15,02,55,13.70
2013,07,15,02,56,13.70
2013,07,15,02,57,13.70
2013,07,15,02,58,13.70
2013,07,15,02,59,13.70
2013,07,15,03,00,13.70
2013,07,15,03,01,13.70
2013,07,15,03,02,13.70
2013,07,15,03,03,13.70
2013,07,15,03,04,13.70
2013,07,15,03,05,13.70
2013,07,15,03,06,13.70
2013,07,15,03,07,13.70
2013,07,15,03,08,13.70
2013,07,15,03,09,13.70
2013,07,15,03,10,13.70
2013,07,15,03,11,13.70
2013,07,15,03,12,13.70
2013,07,15,03,13,13.70
2013,07,15,03,14,13.70
2013,07,15,03,15,13.70
2013,07,15,03,16,13.70
2013,07,15,03,17,13.70
2013,07,15,03,18,13.70
2013,07,15,03,19,13.60
2013,07,15,03,20,13.60
2013,07,15,03,21,13.60
2013,07,15,03,22,13.60
2013,07,15,03,23,13.50
2013,07,15,03,24,13.50
2013,07,15,03,25,13.50
2013,07,15,03,26,13.50
2013,07,15,03,27,13.50
2013,07,15,03,28,13.50
2013,07,15,03,29,13.50
2013,07,15,03,30,13.50
2013,07,15,03,31,13.50
2013,07,15,03,32,13.50
2013,07,15,03,33,13.40
2013,07,15,03,34,13.40
2013,07,15,03,35,13.30
2013,07,15,03,36,13.30
2013,07,15,03,37,13.30
2013,07,15,03,38,13.30
2013,07,15,03,39,13.30
2013,07,15,03,40,13.30
2013,07,15,03,41,13.30
2013,07,15,03,42,13.30
2013,07,15,03,43,13.30
2013,07,15,03,44,13.30
2013,07,15,03,45,13.30
2013,07,15,03,46,13.30
2013,07,15,03,47,13.30
2013,07,15,03,48,13.30
2013,07,15,03,49,13.30
2013,07,15,03,50,13.30
2013,07,15,03,51,13.30
2013,07,15,03,52,13.30
2013,07,15,03,53,13.30
2013,07,15,03,54,13.30
2013,07,15,03,55,13.40
2013,07,15,03,56,13.40
2013,07,15,03,57,13.50
2013,07,15,03,58,13.50
2013,07,15,03,59,13.50
2013,07,15,04,00,13.50
2013,07,15,04,01,13.60
2013,07,15,04,02,13.60
2013,07,15,04,03,13.60
2013,07,15,04,04,13.70
2013,07,15,04,05,13.70
2013,07,15,04,06,13.70
2013,07,15,04,07,13.70
2013,07,15,04,08,13.60
2013,07,15,04,09,13.60
2013,07,15,04,10,13.60
2013,07,15,04,11,13.60
2013,07,15,04,12,13.60
2013,07,15,04,13,13.60
2013,07,15,04,14,13.60
2013,07,15,04,15,13.60
2013,07,15,04,16,13.60
2013,07,15,04,17,13.60
2013,07,15,04,18,13.60
2013,07,15,04,19,13.50
2013,07,15,04,20,13.50
2013,07,15,04,21,13.50
2013,07,15,04,22,13.50
2013,07,15,04,23,13.40
2013,07,15,04,24,13.40
2013,07,15,04,25,13.40
2013,07,15,04,26,13.40
2013,07,15,04,27,13.40
2013,07,15,04,28,13.40
2013,07,15,04,29,13.40
2013,07,15,04,30,13.40
2013,07,15,04,31,13.40
2013,07,15,04,32,13.40
2013,07,15,04,33,13.30
2013,07,15,04,34,13.30
2013,07,15,04,35,13.30
2013,07,15,04,36,13.30
2013,07,15,04,37,13.30
2013,07,15,04,38,13.20
2013,07,15,04,39,13.10
2013,07,15,04,40,13.10
2013,07,15,04,41,13.00
2013,07,15,04,42,13.00
2013,07,15,04,43,12.90
2013,07,15,04,44,12.90
2013,07,15,04,45,12.90
2013,07,15,04,46,12.90
2013,07,15,04,47,12.80
2013,07,15,04,48,12.80
2013,07,15,04,49,12.80
2013,07,15,04,50,12.80
2013,07,15,04,51,12.80
2013,07,15,04,52,12.80
2013,07,15,04,53,12.80
2013,07,15,04,54,12.70
2013,07,15,04,55,12.70
2013,07,15,04,56,12.70
2013,07,15,04,57,12.70
2013,07,15,04,58,12.70
2013,07,15,04,59,12.70
2013,07,15,05,00,12.70
2013,07,15,05,01,12.70
2013,07,15,05,02,12.70
2013,07,15,05,03,12.70
2013,07,15,05,04,12.70
2013,07,15,05,05,12.70
2013,07,15,05,06,12.60
2013,07,15,05,07,12.60
2013,07,15,05,08,12.60
2013,07,15,05,09,12.60
2013,07,15,05,10,12.60
2013,07,15,05,11,12.60
2013,07,15,05,12,12.60
2013,07,15,05,13,12.60
2013,07,15,05,14,12.50
2013,07,15,05,15,12.60
2013,07,15,05,16,12.60
2013,07,15,05,17,12.50
2013,07,15,05,18,12.50
2013,07,15,05,19,12.50
2013,07,15,05,20,12.40
2013,07,15,05,21,12.40
2013,07,15,05,22,12.30
2013,07,15,05,23,12.30
2013,07,15,05,24,12.30
2013,07,15,05,25,12.30
2013,07,15,05,26,12.30
2013,07,15,05,27,12.20
2013,07,15,05,28,12.20
2013,07,15,05,29,12.20
2013,07,15,05,30,12.10
2013,07,15,05,31,12.10
2013,07,15,05,32,12.10
2013,07,15,05,33,12.00
2013,07,15,05,34,12.00
2013,07,15,05,35,12.00
2013,07,15,05,36,12.00
2013,07,15,05,37,12.00
2013,07,15,05,38,12.00
2013,07,15,05,39,12.00
2013,07,15,05,40,12.00
2013,07,15,05,41,12.00
2013,07,15,05,42,12.00
2013,07,15,05,43,12.00
2013,07,15,05,44,12.00
2013,07,15,05,45,12.00
2013,07,15,05,46,12.00
2013,07,15,05,47,12.10
2013,07,15,05,48,12.10
2013,07,15,05,49,12.10
2013,07,15,05,50,12.20
2013,07,15,05,51,12.20
2013,07,15,05,52,12.20
2013,07,15,05,53,12.20
2013,07,15,05,54,12.30
2013,07,15,05,55,12.30
2013,07,15,05,56,12.30
2013,07,15,05,57,12.30
2013,07,15,05,58,12.40
2013,07,15,05,59,12.40
2013,07,15,06,00,12.50
2013,07,15,06,01,12.60
2013,07,15,06,02,12.60
2013,07,15,06,03,12.70
2013,07,15,06,04,12.70
2013,07,15,06,05,12.80
2013,07,15,06,06,12.70
2013,07,15,06,07,12.70
2013,07,15,06,08,12.70
2013,07,15,06,09,12.60
2013,07,15,06,10,12.60
2013,07,15,06,11,12.60
2013,07,15,06,12,12.60
2013,07,15,06,13,12.70
2013,07,15,06,14,12.70
2013,07,15,06,15,12.70
2013,07,15,06,16,12.70
2013,07,15,06,17,12.80
2013,07,15,06,18,12.80
2013,07,15,06,19,12.90
2013,07,15,06,20,13.00
2013,07,15,06,21,13.10
2013,07,15,06,22,13.20
2013,07,15,06,23,13.30
2013,07,15,06,24,13.40
2013,07,15,06,25,13.50
2013,07,15,06,26,13.50
2013,07,15,06,27,13.60
2013,07,15,06,28,13.60
2013,07,15,06,29,13.70
2013,07,15,06,30,13.70
2013,07,15,06,31,13.80
2013,07,15,06,32,13.80
2013,07,15,06,33,13.90
2013,07,15,06,34,13.90
2013,07,15,06,35,13.90
2013,07,15,06,36,14.00
2013,07,15,06,37,14.00
2013,07,15,06,38,14.00
2013,07,15,06,39,14.00
2013,07,15,06,40,14.10
2013,07,15,06,41,14.10
2013,07,15,06,42,14.10
2013,07,15,06,43,14.10
2013,07,15,06,44,14.10
2013,07,15,06,45,14.20
2013,07,15,06,46,14.20
2013,07,15,06,47,14.20
2013,07,15,06,48,14.20
2013,07,15,06,49,14.30
2013,07,15,06,50,14.30
2013,07,15,06,51,14.40
2013,07,15,06,52,14.40
2013,07,15,06,53,14.50
2013,07,15,06,54,14.60
2013,07,15,06,55,14.60
2013,07,15,06,56,14.70
2013,07,15,06,57,14.70
2013,07,15,06,58,14.70
2013,07,15,06,59,14.80
2013,07,15,07,00,14.80
2013,07,15,07,01,14.80
2013,07,15,07,02,14.80
2013,07,15,07,03,14.80
2013,07,15,07,04,14.90
2013,07,15,07,05,15.00
2013,07,15,07,06,15.10
2013,07,15,07,07,15.10
2013,07,15,07,08,15.20
2013,07,15,07,09,15.20
2013,07,15,07,10,15.30
2013,07,15,07,11,15.30
2013,07,15,07,12,15.40
2013,07,15,07,13,15.50
2013,07,15,07,14,15.50
2013,07,15,07,15,15.60
2013,07,15,07,16,15.60
2013,07,15,07,17,15.60
2013,07,15,07,18,15.60
2013,07,15,07,19,15.70
2013,07,15,07,20,15.70
2013,07,15,07,21,15.70
2013,07,15,07,22,15.70
2013,07,15,07,23,15.80
2013,07,15,07,24,15.80
2013,07,15,07,25,15.80
2013,07,15,07,26,16.00
2013,07,15,07,27,16.10
2013,07,15,07,28,16.20
2013,07,15,07,29,16.30
2013,07,15,07,30,16.40
2013,07,15,07,31,16.50
2013,07,15,07,32,16.60
2013,07,15,07,33,16.70
2013,07,15,07,34,16.80
2013,07,15,07,35,16.90
2013,07,15,07,36,16.90
2013,07,15,07,37,17.00
2013,07,15,07,38,17.00
2013,07,15,07,39,17.10
2013,07,15,07,40,17.20
2013,07,15,07,41,17.20
2013,07,15,07,42,17.30
2013,07,15,07,43,17.30
2013,07,15,07,44,17.40
2013,07,15,07,45,17.50
2013,07,15,07,46,17.60
2013,07,15,07,47,17.60
2013,07,15,07,48,17.70
2013,07,15,07,49,17.70
2013,07,15,07,50,17.70
2013,07,15,07,51,17.80
2013,07,15,07,52,17.80
2013,07,15,07,53,17.80
2013,07,15,07,54,17.80
2013,07,15,07,55,17.70
2013,07,15,07,56,17.70
2013,07,15,07,57,17.70
2013,07,15,07,58,17.60
2013,07,15,07,59,17.50
2013,07,15,08,00,17.50
2013,07,15,08,01,17.40
2013,07,15,08,02,17.40
2013,07,15,08,03,17.40
2013,07,15,08,04,17.30
2013,07,15,08,05,17.30
2013,07,15,08,06,17.30
2013,07,15,08,07,17.30
2013,07,15,08,08,17.30
2013,07,15,08,09,17.30
2013,07,15,08,10,17.40
2013,07,15,08,11,17.60
2013,07,15,08,12,17.70
2013,07,15,08,13,17.80
2013,07,15,08,14,17.90
2013,07,15,08,15,18.00
2013,07,15,08,16,18.10
2013,07,15,08,17,18.20
2013,07,15,08,18,18.30
2013,07,15,08,19,18.40
2013,07,15,08,20,18.50
2013,07,15,08,21,18.50
2013,07,15,08,22,18.60
2013,07,15,08,23,18.70
2013,07,15,08,24,18.70
2013,07,15,08,25,18.80
2013,07,15,08,26,18.90
2013,07,15,08,27,18.90
2013,07,15,08,28,18.90
2013,07,15,08,29,18.90
2013,07,15,08,30,18.90
2013,07,15,08,31,18.90
2013,07,15,08,32,18.90
2013,07,15,08,33,18.80
2013,07,15,08,34,18.70
2013,07,15,08,35,18.70
2013,07,15,08,36,18.70
2013,07,15,08,37,18.60
2013,07,15,08,38,18.70
2013,07,15,08,39,18.70
2013,07,15,08,40,18.70
2013,07,15,08,41,18.70
2013,07,15,08,42,18.70
2013,07,15,08,43,18.70
2013,07,15,08,44,18.80
2013,07,15,08,45,18.80
2013,07,15,08,46,18.80
2013,07,15,08,47,18.70
2013,07,15,08,48,18.70
2013,07,15,08,49,18.60
2013,07,15,08,50,18.60
2013,07,15,08,51,18.60
2013,07,15,08,52,18.60
2013,07,15,08,53,18.70
2013,07,15,08,54,18.60
2013,07,15,08,55,18.60
2013,07,15,08,56,18.60
2013,07,15,08,57,18.60
2013,07,15,08,58,18.60
2013,07,15,08,59,18.60
2013,07,15,09,00,18.70
2013,07,15,09,01,18.70
2013,07,15,09,02,18.70
2013,07,15,09,03,18.70
2013,07,15,09,04,18.70
2013,07,15,09,05,18.70
2013,07,15,09,06,18.70
2013,07,15,09,07,18.70
2013,07,15,09,08,18.70
2013,07,15,09,09,18.80
2013,07,15,09,10,18.80
2013,07,15,09,11,18.90
2013,07,15,09,12,18.90
2013,07,15,09,13,18.90
2013,07,15,09,14,18.90
2013,07,15,09,15,18.90
2013,07,15,09,16,18.90
2013,07,15,09,17,18.90
2013,07,15,09,18,18.80
2013,07,15,09,19,18.70
2013,07,15,09,20,18.70
2013,07,15,09,21,18.60
2013,07,15,09,22,18.60
2013,07,15,09,23,18.50
2013,07,15,09,24,18.60
2013,07,15,09,25,18.60
2013,07,15,09,26,18.60
2013,07,15,09,27,18.60
2013,07,15,09,28,18.70
2013,07,15,09,29,18.80
2013,07,15,09,30,18.80
2013,07,15,09,31,18.90
2013,07,15,09,32,18.90
2013,07,15,09,33,19.00
2013,07,15,09,34,19.10
2013,07,15,09,35,19.20
2013,07,15,09,36,19.30
2013,07,15,09,37,19.40
2013,07,15,09,38,19.40
2013,07,15,09,39,19.50
2013,07,15,09,40,19.50
2013,07,15,09,41,19.40
2013,07,15,09,42,19.30
2013,07,15,09,43,19.20
2013,07,15,09,44,19.10
2013,07,15,09,45,19.10
2013,07,15,09,46,19.10
2013,07,15,09,47,19.10
2013,07,15,09,48,19.10
2013,07,15,09,49,19.10
2013,07,15,09,50,19.10
2013,07,15,09,51,19.20
2013,07,15,09,52,19.30
2013,07,15,09,53,19.40
2013,07,15,09,54,19.50
2013,07,15,09,55,19.60
2013,07,15,09,56,19.60
2013,07,15,09,57,19.70
2013,07,15,09,58,19.80
2013,07,15,09,59,19.90
2013,07,15,10,00,19.90
2013,07,15,10,01,19.90
2013,07,15,10,02,19.90
2013,07,15,10,03,20.00
2013,07,15,10,04,20.10
2013,07,15,10,05,20.10
2013,07,15,10,06,20.10
2013,07,15,10,07,20.10
2013,07,15,10,08,20.20
2013,07,15,10,09,20.20
2013,07,15,10,10,20.20
2013,07,15,10,11,20.30
2013,07,15,10,12,20.30
2013,07,15,10,13,20.40
2013,07,15,10,14,20.40
2013,07,15,10,15,20.40
2013,07,15,10,16,20.40
2013,07,15,10,17,20.50
2013,07,15,10,18,20.50
2013,07,15,10,19,20.50
2013,07,15,10,20,20.60
2013,07,15,10,21,20.60
2013,07,15,10,22,20.60
2013,07,15,10,23,20.60
2013,07,15,10,24,20.60
2013,07,15,10,25,20.70
2013,07,15,10,26,20.70
2013,07,15,10,27,20.80
2013,07,15,10,28,20.80
2013,07,15,10,29,20.90
2013,07,15,10,30,20.90
2013,07,15,10,31,20.90
2013,07,15,10,32,20.90
2013,07,15,10,33,21.00
2013,07,15,10,34,21.00
2013,07,15,10,35,21.00
2013,07,15,10,36,21.10
2013,07,15,10,37,21.10
2013,07,15,10,38,21.10
2013,07,15,10,39,21.10
2013,07,15,10,40,21.10
2013,07,15,10,41,21.10
2013,07,15,10,42,21.10
2013,07,15,10,43,21.20
2013,07,15,10,44,21.30
2013,07,15,10,45,21.30
2013,07,15,10,46,21.30
2013,07,15,10,47,21.30
2013,07,15,10,48,21.40
2013,07,15,10,49,21.40
2013,07,15,10,50,21.50
2013,07,15,10,51,21.60
2013,07,15,10,52,21.60
2013,07,15,10,53,21.60
2013,07,15,10,54,21.60
2013,07,15,10,55,21.70
2013,07,15,10,56,21.60
2013,07,15,10,57,21.70
2013,07,15,10,58,21.60
2013,07,15,10,59,21.60
2013,07,15,11,00,21.60
2013,07,15,11,01,21.70
2013,07,15,11,02,21.80
2013,07,15,11,03,21.90
2013,07,15,11,04,21.90
2013,07,15,11,05,22.00
2013,07,15,11,06,22.10
2013,07,15,11,07,22.10
2013,07,15,11,08,22.10
2013,07,15,11,09,22.10
2013,07,15,11,10,22.00
2013,07,15,11,11,22.00
2013,07,15,11,12,22.00
2013,07,15,11,13,22.00
2013,07,15,11,14,22.00
2013,07,15,11,15,21.90
2013,07,15,11,16,21.80
2013,07,15,11,17,21.70
2013,07,15,11,18,21.70
2013,07,15,11,19,21.70
2013,07,15,11,20,21.70
2013,07,15,11,21,21.70
2013,07,15,11,22,21.80
2013,07,15,11,23,21.80
2013,07,15,11,24,21.80
2013,07,15,11,25,21.80
2013,07,15,11,26,21.80
2013,07,15,11,27,21.90
2013,07,15,11,28,21.90
2013,07,15,11,29,21.90
2013,07,15,11,30,22.00
2013,07,15,11,31,22.00
2013,07,15,11,32,22.10
2013,07,15,11,33,22.10
2013,07,15,11,34,22.20
2013,07,15,11,35,22.30
2013,07,15,11,36,22.30
2013,07,15,11,37,22.30
2013,07,15,11,38,22.20
2013,07,15,11,39,22.20
2013,07,15,11,40,22.10
2013,07,15,11,41,22.10
2013,07,15,11,42,22.10
2013,07,15,11,43,22.10
2013,07,15,11,44,22.10
2013,07,15,11,45,22.20
2013,07,15,11,46,22.20
2013,07,15,11,47,22.30
2013,07,15,11,48,22.40
2013,07,15,11,49,22.40
2013,07,15,11,50,22.50
2013,07,15,11,51,22.50
2013,07,15,11,52,22.50
2013,07,15,11,53,22.60
2013,07,15,11,54,22.60
2013,07,15,11,55,22.60
2013,07,15,11,56,22.60
2013,07,15,11,57,22.60
2013,07,15,11,58,22.60
2013,07,15,11,59,22.60
2013,07,15,12,00,22.60
2013,07,15,12,01,22.60
2013,07,15,12,02,22.70
2013,07,15,12,03,22.70
2013,07,15,12,04,22.70
2013,07,15,12,05,22.70
2013,07,15,12,06,22.80
2013,07,15,12,07,22.80
2013,07,15,12,08,22.80
2013,07,15,12,09,22.80
2013,07,15,12,10,22.80
2013,07,15,12,11,22.80
2013,07,15,12,12,22.90
2013,07,15,12,13,22.90
2013,07,15,12,14,22.90
2013,07,15,12,15,22.90
2013,07,15,12,16,22.90
2013,07,15,12,17,22.90
2013,07,15,12,18,22.90
2013,07,15,12,19,22.90
2013,07,15,12,20,22.90
2013,07,15,12,21,22.90
2013,07,15,12,22,22.90
2013,07,15,12,23,22.90
2013,07,15,12,24,22.90
2013,07,15,12,25,23.00
2013,07,15,12,26,23.10
2013,07,15,12,27,23.10
2013,07,15,12,28,22.90
2013,07,15,12,29,22.90
2013,07,15,12,30,22.90
2013,07,15,12,31,22.90
2013,07,15,12,32,22.90
2013,07,15,12,33,22.90
2013,07,15,12,34,22.90
2013,07,15,12,35,22.90
2013,07,15,12,36,22.90
2013,07,15,12,37,22.90
2013,07,15,12,38,22.80
2013,07,15,12,39,22.80
2013,07,15,12,40,22.80
2013,07,15,12,41,22.90
2013,07,15,12,42,22.90
2013,07,15,12,43,22.90
2013,07,15,12,44,23.00
2013,07,15,12,45,23.10
2013,07,15,12,46,23.10
2013,07,15,12,47,23.00
2013,07,15,12,48,22.90
2013,07,15,12,49,22.90
2013,07,15,12,50,22.90
2013,07,15,12,51,22.90
2013,07,15,12,52,23.10
2013,07,15,12,53,23.10
2013,07,15,12,54,23.20
2013,07,15,12,55,23.30
2013,07,15,12,56,23.30
2013,07,15,12,57,23.30
2013,07,15,12,58,23.30
2013,07,15,12,59,23.40
2013,07,15,13,00,23.40
2013,07,15,13,01,23.60
2013,07,15,13,02,23.60
2013,07,15,13,03,23.60
2013,07,15,13,04,23.60
2013,07,15,13,05,23.60
2013,07,15,13,06,23.50
2013,07,15,13,07,23.40
2013,07,15,13,08,23.30
2013,07,15,13,09,23.30
2013,07,15,13,10,23.30
2013,07,15,13,11,23.30
2013,07,15,13,12,23.30
2013,07,15,13,13,23.30
2013,07,15,13,14,23.30
2013,07,15,13,15,23.30
2013,07,15,13,16,23.30
2013,07,15,13,17,23.30
2013,07,15,13,18,23.40
2013,07,15,13,19,23.40
2013,07,15,13,20,23.40
2013,07,15,13,21,23.40
2013,07,15,13,22,23.50
2013,07,15,13,23,23.60
2013,07,15,13,24,23.50
2013,07,15,13,25,23.40
2013,07,15,13,26,23.40
2013,07,15,13,27,23.30
2013,07,15,13,28,23.40
2013,07,15,13,29,23.40
2013,07,15,13,30,23.30
2013,07,15,13,31,23.30
2013,07,15,13,32,23.30
2013,07,15,13,33,23.30
2013,07,15,13,34,23.30
2013,07,15,13,35,23.30
2013,07,15,13,36,23.30
2013,07,15,13,37,23.30
2013,07,15,13,38,23.30
2013,07,15,13,39,23.30
2013,07,15,13,40,23.30
2013,07,15,13,41,23.30
2013,07,15,13,42,23.30
2013,07,15,13,43,23.20
2013,07,15,13,44,23.20
2013,07,15,13,45,23.20
2013,07,15,13,46,23.10
2013,07,15,13,47,23.10
2013,07,15,13,48,23.00
2013,07,15,13,49,22.90
2013,07,15,13,50,22.90
2013,07,15,13,51,23.00
2013,07,15,13,52,23.10
2013,07,15,13,53,23.10
2013,07,15,13,54,23.20
2013,07,15,13,55,23.30
2013,07,15,13,56,23.30
2013,07,15,13,57,23.20
2013,07,15,13,58,23.10
2013,07,15,13,59,23.00
2013,07,15,14,00,22.90
2013,07,15,14,01,22.80
2013,07,15,14,02,22.80
2013,07,15,14,03,22.90
2013,07,15,14,04,22.90
2013,07,15,14,05,22.90
2013,07,15,14,06,22.90
2013,07,15,14,07,22.90
2013,07,15,14,08,23.00
2013,07,15,14,09,23.00
2013,07,15,14,10,22.90
2013,07,15,14,11,22.90
2013,07,15,14,12,22.90
2013,07,15,14,13,22.80
2013,07,15,14,14,22.80
2013,07,15,14,15,22.90
2013,07,15,14,16,22.90
2013,07,15,14,17,23.00
2013,07,15,14,18,23.10
2013,07,15,14,19,23.20
2013,07,15,14,20,23.30
2013,07,15,14,21,23.30
2013,07,15,14,22,23.40
2013,07,15,14,23,23.60
2013,07,15,14,24,23.60
2013,07,15,14,25,23.60
2013,07,15,14,26,23.60
2013,07,15,14,27,23.60
2013,07,15,14,28,23.50
2013,07,15,14,29,23.60
2013,07,15,14,30,23.60
2013,07,15,14,31,23.70
2013,07,15,14,32,23.70
2013,07,15,14,33,23.80
2013,07,15,14,34,23.80
2013,07,15,14,35,23.80
2013,07,15,14,36,23.70
2013,07,15,14,37,23.70
2013,07,15,14,38,23.70
2013,07,15,14,39,23.70
2013,07,15,14,40,23.70
2013,07,15,14,41,23.70
2013,07,15,14,42,23.70
2013,07,15,14,43,23.70
2013,07,15,14,44,23.70
2013,07,15,14,45,23.70
2013,07,15,14,46,23.70
2013,07,15,14,47,23.70
2013,07,15,14,48,23.70
2013,07,15,14,49,23.60
2013,07,15,14,50,23.60
2013,07,15,14,51,23.70
2013,07,15,14,52,23.80
2013,07,15,14,53,23.90
2013,07,15,14,54,24.00
2013,07,15,14,55,24.10
2013,07,15,14,56,24.20
2013,07,15,14,57,24.20
2013,07,15,14,58,24.20
2013,07,15,14,59,24.20
2013,07,15,15,00,24.20
2013,07,15,15,01,24.10
2013,07,15,15,02,24.10
2013,07,15,15,03,24.10
2013,07,15,15,04,24.10
2013,07,15,15,05,24.10
2013,07,15,15,06,24.10
2013,07,15,15,07,24.20
2013,07,15,15,08,24.30
2013,07,15,15,09,24.30
2013,07,15,15,10,24.40
2013,07,15,15,11,24.50
2013,07,15,15,12,24.50
2013,07,15,15,13,24.50
2013,07,15,15,14,24.60
2013,07,15,15,15,24.70
2013,07,15,15,16,24.80
2013,07,15,15,17,24.90
2013,07,15,15,18,24.90
2013,07,15,15,19,24.90
2013,07,15,15,20,24.90
2013,07,15,15,21,24.90
2013,07,15,15,22,25.00
2013,07,15,15,23,25.00
2013,07,15,15,24,25.10
2013,07,15,15,25,25.10
2013,07,15,15,26,25.20
2013,07,15,15,27,25.20
2013,07,15,15,28,25.30
2013,07,15,15,29,25.20
2013,07,15,15,30,25.00
2013,07,15,15,31,24.90
2013,07,15,15,32,24.80
2013,07,15,15,33,24.80
2013,07,15,15,34,24.80
2013,07,15,15,35,24.90
2013,07,15,15,36,25.00
2013,07,15,15,37,25.10
2013,07,15,15,38,25.20
2013,07,15,15,39,25.30
2013,07,15,15,40,25.40
2013,07,15,15,41,25.50
2013,07,15,15,42,25.60
2013,07,15,15,43,25.70
2013,07,15,15,44,25.80
2013,07,15,15,45,25.80
2013,07,15,15,46,25.80
2013,07,15,15,47,25.70
2013,07,15,15,48,25.70
2013,07,15,15,49,25.70
2013,07,15,15,50,25.60
2013,07,15,15,51,25.60
2013,07,15,15,52,25.60
2013,07,15,15,53,25.70
2013,07,15,15,54,25.70
2013,07,15,15,55,25.70
2013,07,15,15,56,25.70
2013,07,15,15,57,25.70
2013,07,15,15,58,25.60
2013,07,15,15,59,25.60
2013,07,15,16,00,25.60
2013,07,15,16,01,25.60
2013,07,15,16,02,25.70
2013,07,15,16,03,25.70
2013,07,15,16,04,25.80
2013,07,15,16,05,25.90
2013,07,15,16,06,25.90
2013,07,15,16,07,26.00
2013,07,15,16,08,26.00
2013,07,15,16,09,26.00
2013,07,15,16,10,26.00
2013,07,15,16,11,26.00
2013,07,15,16,12,26.00
2013,07,15,16,13,26.00
2013,07,15,16,14,26.00
2013,07,15,16,15,26.00
2013,07,15,16,16,26.00
2013,07,15,16,17,26.10
2013,07,15,16,18,26.20
2013,07,15,16,19,26.30
2013,07,15,16,20,26.30
2013,07,15,16,21,26.30
2013,07,15,16,22,26.30
2013,07,15,16,23,26.30
2013,07,15,16,24,26.20
2013,07,15,16,25,26.10
2013,07,15,16,26,26.10
2013,07,15,16,27,26.00
2013,07,15,16,28,26.00
2013,07,15,16,29,26.00
2013,07,15,16,30,26.00
2013,07,15,16,31,26.00
2013,07,15,16,32,25.90
2013,07,15,16,33,25.90
2013,07,15,16,34,25.90
2013,07,15,16,35,25.90
2013,07,15,16,36,25.90
2013,07,15,16,37,25.80
2013,07,15,16,38,25.80
2013,07,15,16,39,25.80
2013,07,15,16,40,25.70
2013,07,15,16,41,25.70
2013,07,15,16,42,25.60
2013,07,15,16,43,25.60
2013,07,15,16,44,25.70
2013,07,15,16,45,25.70
2013,07,15,16,46,25.80
2013,07,15,16,47,25.90
2013,07,15,16,48,25.90
2013,07,15,16,49,26.00
2013,07,15,16,50,26.00
2013,07,15,16,51,26.10
2013,07,15,16,52,26.10
2013,07,15,16,53,26.10
2013,07,15,16,54,26.00
2013,07,15,16,55,25.90
2013,07,15,16,56,25.90
2013,07,15,16,57,25.80
2013,07,15,16,58,25.70
2013,07,15,16,59,25.70
2013,07,15,17,00,25.60
2013,07,15,17,01,25.60
2013,07,15,17,02,25.60
2013,07,15,17,03,25.60
2013,07,15,17,04,25.50
2013,07,15,17,05,25.50
2013,07,15,17,06,25.40
2013,07,15,17,07,25.30
2013,07,15,17,08,25.30
2013,07,15,17,09,25.20
2013,07,15,17,10,25.20
2013,07,15,17,11,25.20
2013,07,15,17,12,25.10
2013,07,15,17,13,25.10
2013,07,15,17,14,25.10
2013,07,15,17,15,25.20
2013,07,15,17,16,25.20
2013,07,15,17,17,25.20
2013,07,15,17,18,25.10
2013,07,15,17,19,25.10